カタログに戻る

FENGYUN 1C DEB

運用中SSO
NORAD 30338·DEBRIS·🇨🇳 China

打ち上げ May 10, 1999 から Taiyuan Satellite Launch Center

Loading…

次のパス (今後24時間)

TLE

最新Source: Space-Track

元期: Sep 14, 2026, 11:56 UTC

1 30338U 99025AAZ 26257.49756691  .00003730  00000-0  62033-3 0  9991
2 30338  98.4338 332.7475 0263682  73.8417 301.8629 14.50243036 21394

AllMySatでFENGYUN 1C DEBをリアルタイム追跡

Download on the App Store